Weather in Pavlovka

Russia / Bryansk Oblast     52°54′04″N   32°49′31″E
temp.,
°C
wind,
m/s
gust,
m/s
humid.,
%
clouds,
%
prec.,
mm/h
press.,
hPa
HPBL,
m
22 october, fri
fri2200:00+12sw8166072 0.0 999554
03:00+12wsw91768100 0.0 1000830
06:00+12wsw8157855 0.0 1000817
09:00+10wsw916711 0.0 10031183
12:00+12wsw10166238 0.1 10041790
15:00+12w814565 0.1 10061961
18:00+9wsw713605 0.0 1007726
21:00+7wsw513655 0.0 1008606
23 october, sat
sat2300:00+6sw7156610 0.0 1008598
03:00+6sw715635 0.0 1008564
06:00+5sw816635 0.0 1007691
09:00+6wsw8137096 0.0 10081156
12:00+8w91369100 0.4 10091470
15:00+7w8136655 0.8 10111500
18:00+5w713747 0.2 1012774
21:00+6wsw71275100 0.2 1014895
24 october, sun
sun2400:00+6wsw7137398 0.0 1015839
03:00+6w71170100 0.0 10161023
06:00+4wnw6118570 0.1 1017621
09:00+4wnw61080100 0.1 1018887
12:00+4wnw7984100 0.4 1020923
15:00+4nw71172100 0.8 10211236
18:00+2nw7127323 0.1 1024864
21:00+1nnw612825 0.1 1026625
25 october, mon
mon2500:000nnw511837 0.0 1028505
03:00−2nw49935 0.0 1030246
06:00−3nw37935 0.0 1031183
09:00−1nnw368129 0.0 1033235
12:00+3nnw34535 0.0 1033674
15:00+4nw23445 0.0 1033798
18:00+1wsw22605 0.0 103310
21:000sw33675 0.0 103330
26 october, tue
tue2600:00−1ssw36700 0.0 103389
03:00−1ssw48720 0.0 1033153
06:00−2ssw410730 0.0 1031184
09:000ssw512635 0.0 1030314
12:00+5ssw71049100 0.0 1029512
15:00+7ssw61248100 0.0 1026662
18:00+3ssw61456100 0.0 1025366
21:00+3ssw61554100 0.0 1024369